sat.trackr.live / text

‹ back to catalog

HULIANWANG DIGUI-120

NORAD 67060 · 2025-295B

PAYLOAD ACTIVE UNKNOWN

§ Identity

Operator
Country
PRC
Launch date
2025-12-11
Launch site
WSC
Launch vehicle
Mass (kg)
RCS (m²)

External: N2YO · Heavens-Above · Gunter

§ Orbital elements

Epoch: 2026-09-20T16:37:44.294592Z

Period
108.33 min
Inclination
50.0051°
Eccentricity
0.0000778
Mean motion
13.29328168 rev/d
Perigee alt
1,148.7 km
Apogee alt
1,149.9 km
Semi-major
7,527.4 km
B*
2.0259e-5
RAAN
43.1086°
Arg perigee
83.0970°
Mean anomaly
276.9991°
Rev number
3,820

§ Raw data

HULIANWANG DIGUI-1201 67060U 25295B   26263.69287378 -.00000115  00000+0  20259-4 0  99902 67060  50.0051  43.1086 0000778  83.0970 276.9991 13.29328168 38202

JSON: /api/v1/satellites/67060 · /tle

For live sub-satellite position, see the globe view (requires WebGL).

§ Visibility from observer

Set your observer location to see the next 7 days of passes ≥ 10°. The values pass through the URL so the page stays shareable.

No JS? Fill the form by hand. The geolocation button needs JavaScript.